Dalzell, IL

4:08 PM CST on February 08, 2016 (GMT -0600)
Illinois Valley Regional-Duncan

Weather History for KVYS - April, 2014

Change the Weather History Date:

Wednesday, April 16, 2014

  Actual Average Record
Temperature  
Mean Temperature 42 °F -  
Max Temperature 54 °F 65 °F 89 °F (2002)
Min Temperature 31 °F 41 °F 27 °F (1983)
Degree Days  
Heating Degree Days 22    
Moisture  
Dew Point 28 °F    
Average Humidity 57    
Maximum Humidity 76    
Minimum Humidity 36    
Precipitation  
Precipitation 0.00 in - - ()
Sea Level Pressure  
Sea Level Pressure 30.17 in    
Wind  
Wind Speed 11 mph (SSE)    
Max Wind Speed 30 mph    
Max Gust Speed 37 mph    
Visibility 10 miles    
Events      
Averages and records for this station are not official NWS values.
T = Trace of Precipitation, MM = Missing Value Source: NWS Daily Summary

Daily Weather History Graph

Daily Weather History Graph

Search for Another Location

Airport or City:

Trip Planner

Search our weather history database for the weather conditions in past years. The results will help you decide how hot, cold, wet, or windy it might be!

Date:

Astronomy

Apr. 16, 2014 Rise Set
Actual Time 6:15 AM CDT 7:37 PM CDT
Civil Twilight 5:46 AM CDT 8:06 PM CDT
Nautical Twilight 5:12 AM CDT 8:41 PM CDT
Astronomical Twilight 4:35 AM CDT 9:18 PM CDT
Moon 9:22 PM CDT (4/16) 7:02 AM CDT (4/16)
Length of Visible Light 14h 20m
Length of Day
13h 22m
Full, 98% of the Moon is Illuminated
Apr 16
Full
Apr 22
Last Quarter
Apr 29
New
May 6
First Quarter
May 14
Full

Hourly Weather History & Observations

Time (CDT) Temp. Windchill Dew Point Humidity Pressure Visibility Wind Dir Wind Speed Gust Speed Precip Events Conditions
12:10 AM 33.1 °F - 21.9 °F 64% 30.19 in 10.0 mi Calm Calm - N/A   Clear
12:30 AM 32.5 °F - 22.5 °F 66% 30.20 in 10.0 mi Calm Calm - N/A   Clear
12:50 AM 32.0 °F - 22.6 °F 68% 30.20 in 10.0 mi Calm Calm - N/A   Clear
1:10 AM 32.2 °F - 23.2 °F 69% 30.21 in 10.0 mi Calm Calm - N/A   Clear
1:30 AM 32.2 °F - 23.2 °F 69% 30.21 in 10.0 mi Calm Calm - N/A   Clear
1:50 AM 32.5 °F 28.1 °F 23.4 °F 69% 30.20 in 10.0 mi SSE 4.6 mph - N/A   Clear
2:10 AM 32.4 °F - 23.7 °F 70% 30.20 in 10.0 mi Calm Calm - N/A   Clear
2:30 AM 32.0 °F - 23.9 °F 72% 30.20 in 10.0 mi Calm Calm - N/A   Clear
2:50 AM 32.0 °F 24.2 °F 24.8 °F 75% 30.21 in 10.0 mi SSE 9.2 mph - N/A   Clear
3:10 AM 32.0 °F - 25.2 °F 76% 30.21 in 10.0 mi Calm Calm - N/A   Clear
3:30 AM 31.6 °F - 25.0 °F 76% 30.20 in 10.0 mi Calm Calm - N/A   Clear
3:50 AM 31.8 °F - 25.2 °F 76% 30.20 in 10.0 mi Calm Calm - N/A   Clear
4:10 AM 32.0 °F 25.6 °F 25.3 °F 76% 30.20 in 10.0 mi SSE 6.9 mph - N/A   Clear
4:30 AM 31.8 °F - 25.2 °F 76% 30.20 in 10.0 mi Calm Calm - N/A   Clear
4:50 AM 32.0 °F - 25.3 °F 76% 30.21 in 10.0 mi Calm Calm - N/A   Clear
5:10 AM 32.0 °F 24.8 °F 25.3 °F 76% 30.22 in 10.0 mi SSE 8.1 mph - N/A   Clear
5:30 AM 32.0 °F 23.6 °F 24.8 °F 75% 30.22 in 10.0 mi SE 10.4 mph - N/A   Clear
5:50 AM 32.0 °F 24.2 °F 24.8 °F 75% 30.23 in 10.0 mi SSE 9.2 mph - N/A   Clear
6:10 AM 32.0 °F 23.0 °F 24.8 °F 75% 30.23 in 10.0 mi SSE 11.5 mph - N/A   Clear
6:30 AM 32.0 °F 23.6 °F 25.0 °F 75% 30.23 in 10.0 mi SSE 10.4 mph - N/A   Clear
6:50 AM 32.4 °F 24.0 °F 25.5 °F 76% 30.23 in 10.0 mi SSE 10.4 mph - N/A   Clear
7:10 AM 33.1 °F 25.5 °F 25.7 °F 74% 30.25 in 10.0 mi SSE 9.2 mph - N/A   Clear
7:30 AM 34.3 °F 27.0 °F 26.6 °F 73% 30.25 in 10.0 mi SSE 9.2 mph - N/A   Clear
7:50 AM 34.7 °F 25.9 °F 26.6 °F 72% 30.25 in 10.0 mi SSE 12.7 mph - N/A   Clear
8:10 AM 35.6 °F 26.6 °F 27.0 °F 71% 30.25 in 10.0 mi SSE 13.8 mph - N/A   Clear
8:30 AM 36.5 °F 27.8 °F 27.3 °F 69% 30.25 in 10.0 mi SSE 13.8 mph 20.7 mph N/A   Clear
8:50 AM 37.6 °F 29.6 °F 27.7 °F 67% 30.25 in 10.0 mi SSE 12.7 mph - N/A   Clear
9:10 AM 38.8 °F 29.1 °F 28.6 °F 67% 30.25 in 10.0 mi South 19.6 mph 23.0 mph N/A   Clear
9:30 AM 39.6 °F 30.3 °F 28.4 °F 64% 30.25 in 10.0 mi SSE 18.4 mph 21.9 mph N/A   Clear
9:50 AM 41.0 °F 31.4 °F 28.4 °F 61% 30.24 in 10.0 mi South 21.9 mph 27.6 mph N/A   Clear
10:10 AM 43.0 °F 33.5 °F 29.3 °F 59% 30.24 in 10.0 mi SSE 24.2 mph - N/A   Clear
10:30 AM 43.7 °F 34.7 °F 28.9 °F 56% 30.24 in 10.0 mi South 23.0 mph 28.8 mph N/A   Clear
10:50 AM 44.6 °F 35.7 °F 28.6 °F 53% 30.24 in 10.0 mi South 24.2 mph 29.9 mph N/A   Clear
11:10 AM 45.1 °F 37.1 °F 28.8 °F 53% 30.24 in 10.0 mi SSE 20.7 mph 28.8 mph N/A   Clear
11:30 AM 46.4 °F 38.1 °F 29.1 °F 51% 30.23 in 10.0 mi South 24.2 mph 27.6 mph N/A   Clear
11:50 AM 47.3 °F - 29.3 °F 50% 30.21 in 10.0 mi SSE 23.0 mph 29.9 mph N/A   Clear
12:10 PM 47.5 °F - 29.7 °F 50% 30.20 in 10.0 mi South 24.2 mph 31.1 mph N/A   Clear
12:30 PM 48.2 °F - 30.2 °F 50% 30.19 in 10.0 mi SSE 29.9 mph 35.7 mph N/A   Clear
12:50 PM 49.1 °F - 30.6 °F 49% 30.18 in 10.0 mi SSE 25.3 mph 33.4 mph N/A   Clear
1:10 PM 49.8 °F - 31.1 °F 49% 30.17 in 10.0 mi SSE 20.7 mph 31.1 mph N/A   Clear
1:30 PM 50.7 °F - 30.7 °F 46% 30.17 in 10.0 mi SSE 28.8 mph 34.5 mph N/A   Clear
1:50 PM 51.3 °F - 30.7 °F 45% 30.16 in 10.0 mi SSE 25.3 mph 36.8 mph N/A   Clear
2:10 PM 51.8 °F - 30.2 °F 44% 30.15 in 10.0 mi SSE 24.2 mph 34.5 mph N/A   Clear
2:30 PM 52.2 °F - 28.6 °F 40% 30.14 in 10.0 mi SSE 27.6 mph 34.5 mph N/A   Clear
2:50 PM 53.6 °F - 29.8 °F 40% 30.13 in 10.0 mi South 25.3 mph 34.5 mph N/A   Clear
3:10 PM 54.5 °F - 30.2 °F 39% 30.12 in 10.0 mi SSE 25.3 mph 32.2 mph N/A   Clear
3:30 PM 54.5 °F - 29.7 °F 39% 30.12 in 10.0 mi South 24.2 mph 34.5 mph N/A   Clear
3:50 PM 54.7 °F - 29.1 °F 38% 30.10 in 10.0 mi SSE 20.7 mph 32.2 mph N/A   Clear
4:10 PM 54.0 °F - 28.6 °F 38% 30.10 in 10.0 mi SSE 26.5 mph 32.2 mph N/A   Clear
4:30 PM 54.7 °F - 29.3 °F 38% 30.08 in 10.0 mi South 26.5 mph 32.2 mph N/A   Clear
4:50 PM 54.7 °F - 28.4 °F 36% 30.08 in 10.0 mi SSE 25.3 mph 31.1 mph N/A   Clear
5:10 PM 54.7 °F - 28.4 °F 36% 30.08 in 10.0 mi South 23.0 mph 32.2 mph N/A   Clear
5:30 PM 54.3 °F - 28.0 °F 36% 30.08 in 10.0 mi SSE 23.0 mph 32.2 mph N/A   Clear
5:50 PM 52.3 °F - 28.2 °F 39% 30.07 in 10.0 mi SSE 21.9 mph 29.9 mph N/A   Clear
6:10 PM 52.9 °F - 29.3 °F 40% 30.06 in 10.0 mi SSE 19.6 mph 27.6 mph N/A   Clear
6:30 PM 52.2 °F - 29.8 °F 42% 30.07 in 10.0 mi SSE 21.9 mph 28.8 mph N/A   Clear
6:50 PM 50.9 °F - 29.5 °F 44% 30.06 in 10.0 mi SSE 20.7 mph 26.5 mph N/A   Clear
7:10 PM 50.4 °F - 29.3 °F 44% 30.06 in 10.0 mi SSE 23.0 mph 31.1 mph N/A   Clear
7:30 PM 49.5 °F - 28.6 °F 45% 30.06 in 10.0 mi SSE 21.9 mph 29.9 mph N/A   Clear
7:50 PM 49.1 °F - 28.4 °F 45% 30.06 in 10.0 mi SE 19.6 mph 31.1 mph N/A   Clear
8:10 PM 48.4 °F - 28.6 °F 46% 30.08 in 10.0 mi SSE 19.6 mph 27.6 mph N/A   Clear
8:30 PM 47.5 °F - 29.3 °F 49% 30.09 in 10.0 mi SSE 16.1 mph 20.7 mph N/A   Clear
8:50 PM 47.3 °F - 29.7 °F 50% 30.10 in 10.0 mi SSE 17.3 mph - N/A   Clear
9:10 PM 46.9 °F - 30.2 °F 52% 30.13 in 10.0 mi South 16.1 mph 19.6 mph N/A   Clear
9:30 PM 46.4 °F 41.1 °F 30.2 °F 53% 30.13 in 10.0 mi SSE 11.5 mph - N/A   Clear
9:50 PM 45.7 °F 40.2 °F 30.7 °F 56% 30.13 in 10.0 mi SSE 11.5 mph - N/A   Clear
10:10 PM 45.9 °F 40.0 °F 30.7 °F 56% 30.13 in 10.0 mi SSE 12.7 mph - N/A   Clear
10:30 PM 45.1 °F 38.8 °F 30.7 °F 57% 30.12 in 10.0 mi SSE 13.8 mph - N/A   Clear
10:50 PM 45.0 °F 38.2 °F 30.7 °F 57% 30.11 in 10.0 mi SSE 15.0 mph - N/A   Clear
11:10 PM 44.8 °F 37.4 °F 30.6 °F 57% 30.11 in 10.0 mi SSE 17.3 mph - N/A   Clear
11:30 PM 44.6 °F 37.4 °F 30.6 °F 58% 30.11 in 10.0 mi SSE 16.1 mph 19.6 mph N/A   Clear
11:50 PM 44.1 °F 37.1 °F 30.4 °F 59% 30.11 in 10.0 mi SSE 15.0 mph 20.7 mph N/A   Clear